YN1ZSC-13 Weather Reports


time (UTC)temp
F
wind
direction
speed
knots
gust
knots
rain 1hr
in
rain 24hr
in
rain mn
in
humidity
%
barometer
mb
20260504160325 86 80 11.3 0.0 0.00 0.00 0.00 55 1012.0
20260504150321 83 10 3.5 0.0 0.00 0.00 0.00 70 1012.0
20260504141318 79 90 3.5 0.0 0.00 0.00 0.00 69 1012.0
20260504140318 79 90 3.5 0.0 0.00 0.00 0.00 69 1012.0
20260504130314 75 110 4.3 0.0 0.00 0.00 0.00 77 1012.0
20260504120310 76 110 4.3 0.0 0.00 0.00 0.00 73 1011.0
20260504110307 74 95 8.7 18.2 0.00 0.00 0.00 73 1011.0
20260504100304 75 98 9.6 18.2 0.00 0.00 0.00 73 1011.0
20260504081258 75 96 11.3 20.0 0.00 0.00 0.00 71 1011.0
20260504080258 76 96 11.3 20.0 0.00 0.00 0.00 71 1011.0
20260504070254 76 104 8.7 18.2 0.00 0.00 0.00 69 1012.0
20260504050248 82 110 9.6 0.0 0.00 0.00 0.00 64 1013.0
20260504045247 82 110 9.6 0.0 0.00 0.00 0.00 62 1013.0
20260504044247 82 110 9.6 0.0 0.00 0.00 0.00 58 1013.0
20260504043246 82 110 9.6 0.0 0.00 0.00 0.00 58 1013.0
20260504042246 82 110 9.6 0.0 0.00 0.00 0.00 57 1013.0
20260504041245 83 110 9.6 0.0 0.00 0.00 0.00 55 1013.0
20260504040245 83 110 9.6 0.0 0.00 0.00 0.00 55 1013.0
20260504035244 83 110 9.6 0.0 0.00 0.00 0.00 54 1013.0
20260504034244 83 110 9.6 0.0 0.00 0.00 0.00 52 1013.0
20260504033243 83 110 9.6 0.0 0.00 0.00 0.00 52 1013.0
20260504032243 83 140 3.5 0.0 0.00 0.00 0.00 50 1012.0
20260504031242 83 140 3.5 0.0 0.00 0.00 0.00 50 1012.0
20260504030242 84 140 3.5 0.0 0.00 0.00 0.00 50 1012.0
20260504025241 84 140 3.5 0.0 0.00 0.00 0.00 50 1012.0
20260504024240 85 140 3.5 0.0 0.00 0.00 0.00 50 1012.0
20260504023240 85 140 3.5 0.0 0.00 0.00 0.00 50 1012.0
20260504022239 86 140 3.5 0.0 0.00 0.00 0.00 50 1011.0
20260504021239 87 140 3.5 0.0 0.00 0.00 0.00 50 1011.0
20260504020238 80 120 11.3 0.0 0.00 0.00 0.00 44 1011.0
20260504015238 80 120 11.3 0.0 0.00 0.00 0.00 44 1011.0
20260504014237 81 120 11.3 0.0 0.00 0.00 0.00 44 1010.0
20260504013236 82 120 11.3 0.0 0.00 0.00 0.00 44 1010.0
20260504012235 83 120 11.3 0.0 0.00 0.00 0.00 44 1009.0
20260504011235 84 120 11.3 0.0 0.00 0.00 0.00 44 1009.0
20260504010235 85 120 11.3 0.0 0.00 0.00 0.00 44 1009.0
20260504005234 86 120 11.3 0.0 0.00 0.00 0.00 43 1009.0
20260504004233 86 120 11.3 0.0 0.00 0.00 0.00 43 1009.0
20260504003233 87 120 11.3 0.0 0.00 0.00 0.00 43 1008.0
20260504002232 87 120 11.3 0.0 0.00 0.00 0.00 43 1008.0
20260504001232 87 120 11.3 0.0 0.00 0.00 0.00 42 1008.0
20260504000233 88 120 11.3 0.0 0.00 0.00 0.00 42 1008.0
20260503235231 89 120 11.3 0.0 0.00 0.00 0.00 41 1008.0
20260503234230 89 120 11.3 0.0 0.00 0.00 0.00 41 1008.0
20260503233229 90 120 11.3 0.0 0.00 0.00 0.00 41 1008.0
20260503232229 90 120 11.3 0.0 0.00 0.00 0.00 40 1007.0
20260503231228 90 120 11.3 0.0 0.00 0.00 0.00 40 1007.0
20260503230228 91 120 11.3 0.0 0.00 0.00 0.00 40 1007.0
20260503225227 91 120 11.3 0.0 0.00 0.00 0.00 40 1007.0
20260503224227 91 120 11.3 0.0 0.00 0.00 0.00 40 1007.0
20260503223226 91 120 11.3 0.0 0.00 0.00 0.00 40 1007.0
20260503222225 91 120 11.3 0.0 0.00 0.00 0.00 40 1007.0
20260503221225 92 100 11.3 0.0 0.00 0.00 0.00 39 1007.0
20260503220224 92 100 11.3 0.0 0.00 0.00 0.00 39 1007.0
20260503215224 92 100 11.3 0.0 0.00 0.00 0.00 39 1007.0
20260503214223 92 100 11.3 0.0 0.00 0.00 0.00 39 1007.0
20260503213222 92 100 11.3 0.0 0.00 0.00 0.00 39 1007.0
20260503212222 92 100 11.3 0.0 0.00 0.00 0.00 39 1008.0
20260503211221 92 100 11.3 0.0 0.00 0.00 0.00 40 1008.0
20260503210220 93 100 11.3 0.0 0.00 0.00 0.00 40 1008.0
20260503205220 93 100 11.3 0.0 0.00 0.00 0.00 40 1008.0
20260503204219 94 100 11.3 0.0 0.00 0.00 0.00 40 1008.0
20260503203219 95 100 11.3 0.0 0.00 0.00 0.00 40 1008.0
20260503202218 95 100 11.3 0.0 0.00 0.00 0.00 40 1008.0
20260503201217 91 124 6.1 7.0 0.00 0.00 0.00 41 1008.0
20260503200217 92 124 6.1 7.0 0.00 0.00 0.00 41 1008.0
20260503195217 93 124 6.1 7.0 0.00 0.00 0.00 41 1008.0
20260503194216 91 124 6.1 7.0 0.00 0.00 0.00 48 1009.0
20260503193216 92 124 6.1 7.0 0.00 0.00 0.00 48 1009.0
20260503192215 93 130 2.6 7.0 0.00 0.00 0.00 47 1010.0
20260503191214 91 120 4.3 0.0 0.00 0.00 0.00 46 1010.0
20260503190214 92 120 5.2 0.0 0.00 0.00 0.00 46 1010.0
20260503185213 92 120 5.2 0.0 0.00 0.00 0.00 46 1010.0
20260503184213 91 120 5.2 0.0 0.00 0.00 0.00 46 1010.0
20260503183212 92 120 5.2 0.0 0.00 0.00 0.00 46 1010.0
20260503182212 89 100 3.5 0.0 0.00 0.00 0.00 52 1011.0
20260503181211 89 100 3.5 0.0 0.00 0.00 0.00 52 1011.0
20260503180211 89 100 3.5 0.0 0.00 0.00 0.00 52 1011.0
20260503175210 90 100 3.5 0.0 0.00 0.00 0.00 52 1011.0
20260503174210 89 100 3.5 0.0 0.00 0.00 0.00 52 1011.0
20260503173209 90 100 3.5 0.0 0.00 0.00 0.00 52 1011.0
20260503171207 87 110 7.8 0.0 0.00 0.00 0.00 55 1012.0
20260503170206 87 110 7.8 0.0 0.00 0.00 0.00 55 1012.0